Beaufort, SC

4:55 AM EST on February 06, 2016 (GMT -0500)
Beaufort

Weather History for KARW - March, 2013

Change the Weather History Date:

Thursday, March 21, 2013

  Actual Average (KNBC) Record (KNBC)
Temperature  
Mean Temperature 50 °F -  
Max Temperature 59 °F 71 °F 89 °F (1935)
Min Temperature 41 °F 51 °F 29 °F (1956)
Degree Days  
Heating Degree Days 14    
Moisture  
Dew Point 23 °F    
Average Humidity 38    
Maximum Humidity 93    
Minimum Humidity 17    
Precipitation  
Precipitation 0.00 in - - ()
Sea Level Pressure  
Sea Level Pressure 29.87 in    
Wind  
Wind Speed 11 mph (WNW)    
Max Wind Speed 22 mph    
Max Gust Speed 31 mph    
Visibility 10 miles    
Events      
Averages and records for this station are not official NWS values.
T = Trace of Precipitation, MM = Missing Value Source: NWS Daily Summary

Daily Weather History Graph

Daily Weather History Graph

Search for Another Location

Airport or City:

Trip Planner

Search our weather history database for the weather conditions in past years. The results will help you decide how hot, cold, wet, or windy it might be!

Date:

Astronomy

Mar. 21, 2013 Rise Set
Actual Time 7:24 AM EDT 7:34 PM EDT
Civil Twilight 7:00 AM EDT 7:59 PM EDT
Nautical Twilight 6:31 AM EDT 8:28 PM EDT
Astronomical Twilight 6:02 AM EDT 8:57 PM EDT
Moon 2:19 PM EDT (3/21) 3:28 AM EDT (3/21)
Length of Visible Light 12h 59m
Length of Day
12h 10m
Waxing Gibbous, 68% of the Moon is Illuminated
Mar 21
Waxing Gibbous
Mar 27
Full
Apr 3
Last Quarter
Apr 10
New
Apr 18
First Quarter

Hourly Weather History & Observations

Time (EDT) Temp. Windchill Dew Point Humidity Pressure Visibility Wind Dir Wind Speed Gust Speed Precip Events Conditions
12:15 AM 44.6 °F 42.2 °F 41.0 °F 87% 29.85 in 10.0 mi SW 4.6 mph - N/A   Clear
12:35 AM 44.6 °F 43.1 °F 42.8 °F 93% 29.85 in 10.0 mi WSW 3.5 mph - N/A   Clear
12:55 AM 46.4 °F 42.4 °F 41.0 °F 81% 29.85 in 10.0 mi WSW 8.1 mph - N/A   Clear
1:15 AM 48.2 °F - 37.4 °F 66% 29.85 in 10.0 mi West 4.6 mph - N/A   Clear
1:35 AM 46.4 °F 44.3 °F 37.4 °F 71% 29.85 in 10.0 mi West 4.6 mph - N/A   Clear
1:55 AM 48.2 °F - 33.8 °F 58% 29.84 in 10.0 mi West 8.1 mph - N/A   Clear
2:15 AM 50.0 °F - 32.0 °F 50% 29.84 in 10.0 mi West 6.9 mph - N/A   Clear
2:55 AM 50.0 °F - 30.2 °F 47% 29.83 in 10.0 mi West 10.4 mph - N/A   Clear
3:15 AM 50.0 °F - 30.2 °F 47% 29.83 in 10.0 mi WNW 11.5 mph 16.1 mph N/A   Clear
3:35 AM 50.0 °F - 30.2 °F 47% 29.84 in 10.0 mi WNW 12.7 mph 19.6 mph N/A   Clear
3:55 AM 50.0 °F - 30.2 °F 47% 29.83 in 10.0 mi WNW 12.7 mph 17.3 mph N/A   Clear
4:15 AM 50.0 °F - 28.4 °F 43% 29.82 in 10.0 mi WNW 12.7 mph 17.3 mph N/A   Clear
4:35 AM 50.0 °F - 26.6 °F 40% 29.82 in 10.0 mi WNW 16.1 mph 23.0 mph N/A   Clear
4:55 AM 50.0 °F - 26.6 °F 40% 29.84 in 10.0 mi NW 18.4 mph 24.2 mph N/A   Clear
5:15 AM 50.0 °F - 28.4 °F 43% 29.85 in 10.0 mi WNW 12.7 mph 24.2 mph N/A   Clear
5:55 AM 46.4 °F 41.1 °F 28.4 °F 50% 29.86 in 10.0 mi NW 11.5 mph 21.9 mph N/A   Clear
6:15 AM 46.4 °F 40.4 °F 28.4 °F 50% 29.87 in 10.0 mi WNW 13.8 mph - N/A   Clear
6:55 AM 44.6 °F 39.2 °F 28.4 °F 53% 29.88 in 10.0 mi WNW 10.4 mph 19.6 mph N/A   Clear
7:15 AM 44.6 °F 38.4 °F 26.6 °F 49% 29.88 in 10.0 mi NW 12.7 mph 17.3 mph N/A   Clear
7:35 AM 44.6 °F 39.7 °F 26.6 °F 49% 29.89 in 10.0 mi WNW 9.2 mph 19.6 mph N/A   Clear
7:55 AM 44.6 °F 38.1 °F 24.8 °F 46% 29.89 in 10.0 mi WNW 13.8 mph 17.3 mph N/A   Clear
8:15 AM 44.6 °F 38.4 °F 23.0 °F 43% 29.89 in 10.0 mi NW 12.7 mph 21.9 mph N/A   Clear
8:35 AM 44.6 °F 37.4 °F 23.0 °F 43% 29.89 in 10.0 mi NW 16.1 mph 21.9 mph N/A   Clear
8:55 AM 46.4 °F 40.4 °F 23.0 °F 40% 29.89 in 10.0 mi WNW 13.8 mph 19.6 mph N/A   Clear
9:15 AM 46.4 °F 40.1 °F 26.6 °F 46% 29.89 in 10.0 mi NW 15.0 mph 20.7 mph N/A   Clear
9:35 AM 46.4 °F 39.0 °F 23.0 °F 40% 29.89 in 10.0 mi NW 19.6 mph 26.5 mph N/A   Clear
9:55 AM 48.2 °F - 23.0 °F 37% 29.89 in 10.0 mi WNW 20.7 mph 26.5 mph N/A   Clear
10:15 AM 48.2 °F - 23.0 °F 37% 29.89 in 10.0 mi WNW 15.0 mph 26.5 mph N/A   Clear
10:35 AM 50.0 °F - 24.8 °F 37% 29.89 in 10.0 mi West 21.9 mph 27.6 mph N/A   Clear
10:55 AM 51.8 °F - 24.8 °F 35% 29.89 in 10.0 mi WNW 18.4 mph 25.3 mph N/A   Clear
11:15 AM 51.8 °F - 23.0 °F 33% 29.89 in 10.0 mi WNW 19.6 mph 31.1 mph N/A   Clear
11:35 AM 53.6 °F - 21.2 °F 28% 29.89 in 10.0 mi West 20.7 mph 27.6 mph N/A   Clear
11:55 AM 53.6 °F - 19.4 °F 26% 29.88 in 10.0 mi WNW 13.8 mph 25.3 mph N/A   Clear
12:15 PM 53.6 °F - 17.6 °F 24% 29.88 in 10.0 mi WNW 15.0 mph 27.6 mph N/A   Clear
12:55 PM 55.4 °F - 17.6 °F 23% 29.87 in 10.0 mi NW 13.8 mph 27.6 mph N/A   Clear
1:15 PM 55.4 °F - 17.6 °F 23% 29.86 in 10.0 mi NW 15.0 mph 23.0 mph N/A   Clear
1:35 PM 55.4 °F - 17.6 °F 23% 29.86 in 10.0 mi WNW 16.1 mph 25.3 mph N/A   Clear
1:55 PM 55.4 °F - 17.6 °F 23% 29.86 in 10.0 mi WNW 17.3 mph 23.0 mph N/A   Clear
2:15 PM 57.2 °F - 19.4 °F 23% 29.85 in 10.0 mi WNW 18.4 mph 27.6 mph N/A   Clear
2:35 PM 57.2 °F - 15.8 °F 20% 29.85 in 10.0 mi WNW 16.1 mph 26.5 mph N/A   Clear
3:15 PM 57.2 °F - 17.6 °F 21% 29.84 in 10.0 mi West 19.6 mph 26.5 mph N/A   Clear
3:35 PM 59.0 °F - 14.0 °F 17% 29.84 in 10.0 mi West 15.0 mph 27.6 mph N/A   Clear
3:55 PM 57.2 °F - 12.2 °F 17% 29.84 in 10.0 mi WNW 17.3 mph 25.3 mph N/A   Clear
4:15 PM 55.4 °F - 17.6 °F 23% 29.83 in 10.0 mi WNW 12.7 mph 19.6 mph N/A   Clear
4:35 PM 57.2 °F - 17.6 °F 21% 29.83 in 10.0 mi WNW 13.8 mph 21.9 mph N/A   Clear
4:55 PM 59.0 °F - 15.8 °F 19% 29.83 in 10.0 mi WNW 17.3 mph 24.2 mph N/A   Clear
5:15 PM 59.0 °F - 14.0 °F 17% 29.83 in 10.0 mi West 15.0 mph 21.9 mph N/A   Clear
5:35 PM 59.0 °F - 15.8 °F 19% 29.83 in 10.0 mi West 11.5 mph 18.4 mph N/A   Clear
5:55 PM 57.2 °F - 12.2 °F 17% 29.83 in 10.0 mi West 18.4 mph 26.5 mph N/A   Clear
6:35 PM 55.4 °F - 12.2 °F 18% 29.84 in 10.0 mi West 10.4 mph 25.3 mph N/A   Clear
6:55 PM 55.4 °F - 14.0 °F 20% 29.86 in 10.0 mi WNW 12.7 mph 17.3 mph N/A   Clear
7:15 PM 55.4 °F - 14.0 °F 20% 29.87 in 10.0 mi WNW 15.0 mph 18.4 mph N/A   Clear
7:35 PM 53.6 °F - 17.6 °F 24% 29.88 in 10.0 mi WNW 9.2 mph - N/A   Clear
7:55 PM 53.6 °F - 14.0 °F 21% 29.89 in 10.0 mi West 11.5 mph - N/A   Clear
8:15 PM 53.6 °F - 15.8 °F 22% 29.90 in 10.0 mi WNW 6.9 mph 17.3 mph N/A   Clear
8:35 PM 51.8 °F - 17.6 °F 26% 29.90 in 10.0 mi WNW 8.1 mph - N/A   Clear
8:55 PM 51.8 °F - 15.8 °F 24% 29.91 in 10.0 mi West 5.8 mph - N/A   Clear
9:15 PM 46.4 °F 44.3 °F 19.4 °F 34% 29.91 in 10.0 mi West 4.6 mph - N/A   Clear
9:35 PM 46.4 °F - 19.4 °F 34% 29.91 in 10.0 mi Calm Calm - N/A   Clear
9:55 PM 44.6 °F 43.1 °F 21.2 °F 39% 29.92 in 10.0 mi West 3.5 mph - N/A   Clear
10:15 PM 44.6 °F - 23.0 °F 43% 29.93 in 10.0 mi Calm Calm - N/A   Clear
10:55 PM 42.8 °F 40.1 °F 23.0 °F 46% 29.95 in 10.0 mi WSW 4.6 mph - N/A   Clear
11:15 PM 42.8 °F - 23.0 °F 46% 29.96 in 10.0 mi Calm Calm - N/A   Clear
11:35 PM 42.8 °F 41.1 °F 24.8 °F 49% 29.96 in 10.0 mi WNW 3.5 mph - N/A   Clear
11:55 PM 41.0 °F - 26.6 °F 57% 29.96 in 10.0 mi Calm Calm - N/A   Clear